Showing default

METEOR 2-7, 12456

Orbit data source: Space-Track

METEOR 2-7, 12456 is a Commonwealth of Independent States-origin payload satellite in LEO that was launched on Thu, 14 May 1981 UTC via a VOSTOK 8A92M launch vehicle from the Plesetsk Missile And Space Complex (PKMTR). Payload-class satellites include a variety of spacecraft equipped with specific instruments for various scientific and technological missions. These include communications satellites like Starlink; space stations such as the ISS; scientific satellites like the Hubble; Earth observation satellites from companies like Planet Labs, Umbra, and HawkEye 360; GPS; miniature CubeSats for education and research; and military/defense satellites.

Loading next visibility...
Identifier
12456, 1981-043A
Orbit
LEO
Country
Flag of CISCIS
Related business
Manufacturer
VNIIEM
Mission
Spacecraft
Bus & Motor
METEOR-2, Unknown motor
Mass
~1,500 kg wet, ~1,500 kg dry
Launch date (UTC)
1981-05-14 (44 years ago)
Launch vehicle
VOSTOK 8A92M
Launch site
Plesetsk Missile And Space Complex (PKMTR)
Object type
Payload
Rocket body
Debris
Shape & HBR
Unknown
Radar Cross Section
Large (>1 m²)

Expand to show TLE details & history
Last TLE update: 6 hours ago

TLE from 6 hours ago
0 METEOR 2-7
1 12456U 81043A   25311.10648704  .00000231  00000-0  12031-3 0  9992
2 12456  81.2641 315.0727 0048324  41.7905 318.6940 14.10987512287730
Epoch: 2025-11-07T02:33Z
TLE epoch observation values (Epoch: 2025-11-07T02:33:20.480Z)
Latitude
-0.00002°
Longitude
-129.81785°
Altitude
832.704 km
Speed
7.45 km/s
True Right ascension
21h 00m 17s
True Declination
0° 00' 00"
Sunlit
Object was in daylight at epoch
Visualization orbit readout
Latitude
Unknown
Longitude
Unknown
Altitude
Unknown
Speed
Unknown
Apparent Right ascension
Unknown
Apparent Declination
Unknown
Sunlit
N/A
Visualization observer readout
Local Sidereal Time
05:00:27
Azimuth
Unknown
Elevation
Unknown
Doppler factor
Unknown
Orbital elements
Apogee altitude
888.111 km
Perigee altitude
818.222 km
Semi-major axis
7,231.303 km
Eccentricity
0.00483
Inclination
81.2641°
RAAN
315.0727°
Arg. of periapsis
41.7905°
True anomaly
318.32682°
Mean anomaly
318.694°
Eccentric anomaly
318.51057°
Mean motion
3.52954 °/min
Orbital period
102 mins
BSTAR
0.00012031
Loading maneuver chart data...
Computing Atmospheric mass density...
Loading historical data...
Loading historical data...
Loading historical data...
Loading historical data...
Loading historical data...
Loading historical data...
Loading historical data...

Documentation

Showing up to 5 results
|